Regional Weather Roundup
Issued by NWS State College, PA

Home | Current Version | Previous Version | Text Only | Print | Product List | Glossary Off
Versions: 1 2 3 4 5 6 7 8 9 10 11 12 13 14 15 16 17 18 19 20 21 22 23 24 25 26 27 28 29 30 31 32 33 34 35 36 37 38 39 40 41 42 43 44 45 46 47 48 49 50

000
ASUS41 KCTP 301403
RWRCTP

REGIONAL WEATHER ROUNDUP
NATIONAL WEATHER SERVICE STATE COLLEGE PA
1000 AM EDT THU OCT 30 2014

Note: "fair" indicates few or no clouds below 12,000 feet with no
significant weather and/or obstructions to visibility.

* = STATION THAT DOES NOT REPORT PRECIPITATION /E.G. RAIN...SNOW...ETC/
    THUNDER OR FOG.

PAZ002>004-007>009-013>016-020>023-029>032-301500-
WESTERN PENNSYLVANIA

CITY           SKY/WX    TMP DP  RH WIND       PRES   REMARKS
ERIE           CLOUDY    47  35  63 VRB7      30.10S
MEADVILLE      LGT RAIN  43  38  82 NW3       30.09R
FRANKLIN*      CLOUDY    43  37  81 CALM      30.10R
NEW CASTLE       N/A     45  40  82 NW5       30.12R
BEAVER COUNTY  CLOUDY    45  39  81 NW7       30.10S
BUTLER*        CLOUDY    45  37  76 W6        30.12S
PITTSBURGH INT MOSUNNY   42  38  85 W7        30.10S
PITTSBURGH     SUNNY     43  35  73 W6        30.10R
INDIANA*       CLOUDY    43  39  87 W6        30.13R
LATROBE        CLOUDY    41  37  87 SW12      30.13R
WASHINGTON CO* SUNNY     43  37  81 CALM      30.12F
$$

PAZ004>006-010>012-017>019-024>028-033>037-041-042-045-046-049>053-301500-
CENTRAL PENNSYLVANIA

CITY           SKY/WX    TMP DP  RH WIND       PRES   REMARKS
BRADFORD       CLOUDY    41  35  79 NW12      30.04S
DUBOIS         CLOUDY    43  37  79 NW12      30.06R
CLEARFIELD     CLOUDY    45  37  73 NW7       30.07R
JOHNSTOWN      CLOUDY    40  35  83 W7        30.06R
ALTOONA        CLOUDY    46  38  73 NW9       30.07R
STATE COLLEGE  CLOUDY    45  37  76 W9        30.06R
WILLIAMSPORT   MOSUNNY   50  38  63 W6        30.04S
SELINSGROVE    MOSUNNY   47  44  90 CALM      30.06S
FT INDIANTOWN  NOT AVBL
CAPITAL CITY   MOSUNNY   51  41  68 W6        30.06S
HARRISBURG     MOSUNNY   50  40  68 NW10      30.05S
YORK           SUNNY     50  39  66 W7        30.06R
$$

PAZ038>040-043-044-047-048-054-055-060>062-067>071-301500-
EASTERN PENNSYLVANIA

CITY           SKY/WX    TMP DP  RH WIND       PRES   REMARKS
SCRANTON       MOSUNNY   47  36  65 NW15      30.03S
MOUNT POCONO   CLOUDY    42  36  79 NW8       30.01R
ALLENTOWN      SUNNY     46  41  82 SW3       30.04R
QUAKERTOWN*    SUNNY     48  41  76 N7        30.04S
READING        MOSUNNY   50  43  77 CALM      30.04R
LANCASTER      SUNNY     49  42  77 NW8       30.05R
COATESVILLE    SUNNY     48  43  81 NW8       30.04S
POTTSTOWN      SUNNY     48  43  82 W3        30.05S
BLUE BELL      SUNNY     50  45  81 CALM      30.03S
DOYLESTOWN     SUNNY     49  43  80 N8        30.02S
WILLOW GROVE   NOT AVBL
NORTH PHILA    SUNNY     53  41  63 NW10      30.04S
PHILADELPHIA   MOSUNNY   53  40  61 N13       30.03S
$$



USA.gov is the U.S. government's official web portal to all federal, state and local government web resources and services.